,,,PA_Meas_PMT16A,,PR_Meas_QMR101_102,,RH_Meas_QMH101,,SR_Meas_QMS101,,TA_Meas_QMH101,,GenWind,,GenWind,
date,time,status,PA,status,PR,status,RH,status,SR,status,TA,status,DirAvg,status,SpdAvg,
2014-12-18, 00:00:04,VALID,1010.81,VALID,0,INVALID,128.227,VALID,0,VALID,24.0058,VALID,92,VALID,0,
2014-12-18, 00:01:04,VALID,1010.78,VALID,0,INVALID,126.588,VALID,0,VALID,24.0058,VALID,103,VALID,0,
2014-12-18, 00:02:04,VALID,1010.79,VALID,0,INVALID,124.933,VALID,0,VALID,24.0058,VALID,103,VALID,0,
2014-12-18, 00:03:04,VALID,1010.78,VALID,0,INVALID,125.253,VALID,0,VALID,24.0253,VALID,103,VALID,0,
2014-12-18, 00:04:04,VALID,1010.77,VALID,0,INVALID,125.284,VALID,0,VALID,24.0448,VALID,103,VALID,0,
2014-12-18, 00:05:04,VALID,1010.76,VALID,0,INVALID,125.23,VALID,0,VALID,24.0253,VALID,103,VALID,0,
2014-12-18, 00:06:04,VALID,1010.77,VALID,0,INVALID,125.139,VALID,0,VALID,24.0253,VALID,103,VALID,0,
2014-12-18, 00:07:04,VALID,1010.76,VALID,0,INVALID,124.353,VALID,0,VALID,24.0058,VALID,103,VALID,0,
2014-12-18, 00:08:04,VALID,1010.76,VALID,0,INVALID,123.499,VALID,0,VALID,24.0058,VALID,103,VALID,0,
2014-12-18, 00:09:04,VALID,1010.74,VALID,0,INVALID,121.837,VALID,0,VALID,23.9863,VALID,103,VALID,0,
2014-12-18, 00:10:04,VALID,1010.74,VALID,0,INVALID,121.905,VALID,0,VALID,23.9863,VALID,103,VALID,0,
2014-12-18, 00:11:04,VALID,1010.74,VALID,0,INVALID,121.593,VALID,0,VALID,24.0076,VALID,103,VALID,0,
2014-12-18, 00:12:04,VALID,1010.72,VALID,0,INVALID,122.241,VALID,0,VALID,24.0076,VALID,103,VALID,0,
2014-12-18, 00:13:04,VALID,1010.7,VALID,0,INVALID,121.966,VALID,0,VALID,23.9863,VALID,103,VALID,0,
2014-12-18, 00:14:04,VALID,1010.72,VALID,0,INVALID,123.011,VALID,0,VALID,24.0058,VALID,103,VALID,0,
2014-12-18, 00:15:04,VALID,1010.73,VALID,0,INVALID,123.08,VALID,0,VALID,24.0058,VALID,103,VALID,0,
2014-12-18, 00:16:04,VALID,1010.69,VALID,0,INVALID,122.614,VALID,0,VALID,24.0271,VALID,103,VALID,0,
2014-12-18, 00:17:04,VALID,1010.72,VALID,0,INVALID,122.302,VALID,0,VALID,23.9863,VALID,103,VALID,0,
2014-12-18, 00:18:04,VALID,1010.69,VALID,0,INVALID,122.355,VALID,0,VALID,24.0058,VALID,103,VALID,0,
2014-12-18, 00:19:04,VALID,1010.7,VALID,0,INVALID,122.012,VALID,0,VALID,24.0058,VALID,103,VALID,0,
2014-12-18, 00:20:04,VALID,1010.71,VALID,0,INVALID,122.027,VALID,0,VALID,24.0253,VALID,103,VALID,0,
2014-12-18, 00:21:04,VALID,1010.65,VALID,0,INVALID,122.34,VALID,0,VALID,24.0058,VALID,103,VALID,0,
2014-12-18, 00:22:04,VALID,1010.65,VALID,0,INVALID,121.265,VALID,0,VALID,24.0058,VALID,103,VALID,0,
2014-12-18, 00:23:04,VALID,1010.65,VALID,0,INVALID,121.501,VALID,0,VALID,24.004,VALID,103,VALID,0,
2014-12-18, 00:24:04,VALID,1010.63,VALID,0,INVALID,119.579,VALID,0,VALID,24.0058,VALID,103,VALID,0,
2014-12-18, 00:25:04,VALID,1010.64,VALID,0,INVALID,116.369,VALID,0,VALID,23.9863,VALID,103,VALID,0,
2014-12-18, 00:26:04,VALID,1010.59,VALID,0,INVALID,116.979,VALID,0,VALID,23.9863,VALID,103,VALID,0,
2014-12-18, 00:27:04,VALID,1010.58,VALID,0,INVALID,116.399,VALID,0,VALID,24.0076,VALID,103,VALID,0,
2014-12-18, 00:28:04,VALID,1010.54,VALID,0,INVALID,117.116,VALID,0,VALID,23.9863,VALID,103,VALID,0,
2014-12-18, 00:29:04,VALID,1010.52,VALID,0,INVALID,116.819,VALID,0,VALID,23.9863,VALID,103,VALID,0,
2014-12-18, 00:30:04,VALID,1010.51,VALID,0,INVALID,117.337,VALID,0,VALID,23.9668,VALID,103,VALID,0,
2014-12-18, 00:31:04,VALID,1010.49,VALID,0,INVALID,117.993,VALID,0,VALID,23.9668,VALID,103,VALID,0,
2014-12-18, 00:32:04,VALID,1010.47,VALID,0,INVALID,118.077,VALID,0,VALID,23.9668,VALID,103,VALID,0,
2014-12-18, 00:33:04,VALID,1010.44,VALID,0,INVALID,117.597,VALID,0,VALID,23.9473,VALID,103,VALID,0,
2014-12-18, 00:34:04,VALID,1010.43,VALID,0,INVALID,116.201,VALID,0,VALID,23.9473,VALID,103,VALID,0,
2014-12-18, 00:35:04,VALID,1010.41,VALID,0,INVALID,115.721,VALID,0,VALID,23.9278,VALID,103,VALID,0,
2014-12-18, 00:36:04,VALID,1010.39,VALID,0,INVALID,116.216,VALID,0,VALID,23.9473,VALID,103,VALID,0,
2014-12-18, 00:37:04,VALID,1010.36,VALID,0,INVALID,118.092,VALID,0,VALID,23.9668,VALID,103,VALID,0,
2014-12-18, 00:38:04,VALID,1010.36,VALID,0,INVALID,118.802,VALID,0,VALID,23.9473,VALID,103,VALID,0,
2014-12-18, 00:39:04,VALID,1010.33,VALID,0,INVALID,119.305,VALID,0,VALID,23.9473,VALID,103,VALID,0,
2014-12-18, 00:40:04,VALID,1010.32,VALID,0,INVALID,119.358,VALID,0,VALID,23.926,VALID,103,VALID,0,
2014-12-18, 00:41:04,VALID,1010.32,VALID,0,INVALID,119.549,VALID,0,VALID,23.9278,VALID,103,VALID,0,
2014-12-18, 00:42:04,VALID,1010.29,VALID,0,INVALID,120.639,VALID,0,VALID,23.9084,VALID,103,VALID,0,
2014-12-18, 00:43:04,VALID,1010.26,VALID,0,INVALID,123.202,VALID,0,VALID,23.8889,VALID,103,VALID,0,
2014-12-18, 00:44:04,VALID,1010.29,VALID,0,INVALID,124.506,VALID,0,VALID,23.8889,VALID,103,VALID,0,
2014-12-18, 00:45:04,VALID,1010.28,VALID,0,INVALID,125.39,VALID,0,VALID,23.8694,VALID,103,VALID,0,
2014-12-18, 00:46:04,VALID,1010.24,VALID,0,INVALID,126.038,VALID,0,VALID,23.8499,VALID,103,VALID,0,
2014-12-18, 00:47:04,VALID,1010.19,VALID,0,INVALID,126.427,VALID,0,VALID,23.8109,VALID,103,VALID,0,
2014-12-18, 00:48:04,VALID,1010.18,VALID,0,INVALID,127.137,VALID,0,VALID,23.8304,VALID,103,VALID,0,
2014-12-18, 00:49:04,VALID,1010.16,VALID,0,INVALID,128.349,VALID,0,VALID,23.8109,VALID,103,VALID,0,
2014-12-18, 00:50:04,VALID,1010.13,VALID,0,INVALID,128.791,VALID,0,VALID,23.7914,VALID,103,VALID,0,
2014-12-18, 00:51:04,VALID,1010.12,VALID,0,INVALID,130.004,VALID,0,VALID,23.7914,VALID,103,VALID,0,
2014-12-18, 00:52:04,VALID,1010.08,VALID,0,INVALID,129.653,VALID,0,VALID,23.772,VALID,103,VALID,0,
2014-12-18, 00:53:04,VALID,1010.07,VALID,0,INVALID,129.386,VALID,0,VALID,23.7525,VALID,103,VALID,0,
2014-12-18, 00:54:04,VALID,1010.05,VALID,0,INVALID,129.745,VALID,0,VALID,23.7312,VALID,103,VALID,0,
2014-12-18, 00:55:04,VALID,1010.07,VALID,0,INVALID,130.217,VALID,0,VALID,23.7525,VALID,103,VALID,0,
2014-12-18, 00:56:04,VALID,1010.05,VALID,0,INVALID,130.522,VALID,0,VALID,23.733,VALID,103,VALID,0,
2014-12-18, 00:57:04,VALID,1010.09,VALID,0,INVALID,130.538,VALID,0,VALID,23.7117,VALID,103,VALID,0,
2014-12-18, 00:58:04,VALID,1010.09,VALID,0,INVALID,130.789,VALID,0,VALID,23.733,VALID,103,VALID,0,
2014-12-18, 00:59:04,VALID,1010.07,VALID,0,INVALID,131.125,VALID,0,VALID,23.733,VALID,103,VALID,0,
2014-12-18, 01:00:04,VALID,1010.06,VALID,0,INVALID,131.209,VALID,0.112112,VALID,23.6922,VALID,103,VALID,0,
2014-12-18, 01:01:04,VALID,1010.04,VALID,0,INVALID,131.315,VALID,0,VALID,23.7135,VALID,103,VALID,0,
2014-12-18, 01:02:04,VALID,1010.03,VALID,0,INVALID,131.773,VALID,0,VALID,23.733,VALID,103,VALID,0,
2014-12-18, 01:03:04,VALID,1010.01,VALID,0,INVALID,132.292,VALID,0.112112,VALID,23.733,VALID,103,VALID,0,
2014-12-18, 01:04:04,VALID,1009.98,VALID,0,INVALID,133.016,VALID,0.112112,VALID,23.7525,VALID,103,VALID,0,
2014-12-18, 01:05:04,VALID,1009.98,VALID,0,INVALID,133.26,VALID,0,VALID,23.7117,VALID,103,VALID,0,
2014-12-18, 01:06:04,VALID,1009.96,VALID,0,INVALID,133.069,VALID,0,VALID,23.733,VALID,103,VALID,0,
2014-12-18, 01:07:04,VALID,1009.93,VALID,0,INVALID,133.344,VALID,0.112112,VALID,23.733,VALID,103,VALID,0,
2014-12-18, 01:08:04,VALID,1009.91,VALID,0,INVALID,132.711,VALID,0,VALID,23.7135,VALID,103,VALID,0,
2014-12-18, 01:09:04,VALID,1009.88,VALID,0,INVALID,132.04,VALID,0,VALID,23.694,VALID,103,VALID,0,
2014-12-18, 01:10:04,VALID,1009.83,VALID,0,INVALID,131.91,VALID,0.112112,VALID,23.6532,VALID,103,VALID,0,
2014-12-18, 01:11:04,VALID,1009.81,VALID,0,INVALID,132.414,VALID,0,VALID,23.6532,VALID,103,VALID,0,
2014-12-18, 01:12:04,VALID,1009.8,VALID,0,INVALID,132.986,VALID,0,VALID,23.6356,VALID,103,VALID,0,
2014-12-18, 01:13:04,VALID,1009.79,VALID,0,INVALID,133.474,VALID,0,VALID,23.6356,VALID,103,VALID,0,
2014-12-18, 01:14:04,VALID,1009.78,VALID,0,INVALID,133.809,VALID,0,VALID,23.6356,VALID,103,VALID,0,
2014-12-18, 01:15:04,VALID,1009.76,VALID,0,INVALID,133.58,VALID,0,VALID,23.6161,VALID,103,VALID,0,
2014-12-18, 01:16:04,VALID,1009.72,VALID,0,INVALID,133.329,VALID,0.112112,VALID,23.6161,VALID,103,VALID,0,
2014-12-18, 01:17:04,VALID,1009.76,VALID,0,INVALID,133.794,VALID,0,VALID,23.5753,VALID,103,VALID,0,
2014-12-18, 01:18:04,VALID,1009.72,VALID,0,INVALID,134.244,VALID,0,VALID,23.5771,VALID,103,VALID,0,
2014-12-18, 01:19:04,VALID,1009.7,VALID,0,INVALID,134.511,VALID,0,VALID,23.5966,VALID,103,VALID,0,
2014-12-18, 01:20:04,VALID,1009.69,VALID,0,INVALID,134.831,VALID,0,VALID,23.5771,VALID,103,VALID,0,
2014-12-18, 01:21:04,VALID,1009.67,VALID,0,INVALID,135.334,VALID,0,VALID,23.5771,VALID,103,VALID,0,
2014-12-18, 01:22:04,VALID,1009.66,VALID,0,INVALID,136.524,VALID,0.112112,VALID,23.5771,VALID,103,VALID,0,
2014-12-18, 01:23:04,VALID,1009.64,VALID,0,INVALID,136.478,VALID,0.112112,VALID,23.5753,VALID,103,VALID,0,
2014-12-18, 01:24:04,VALID,1009.63,VALID,0,INVALID,136.333,VALID,0.112112,VALID,23.5753,VALID,103,VALID,0,
2014-12-18, 01:25:04,VALID,1009.61,VALID,0,INVALID,135.761,VALID,0,VALID,23.5576,VALID,103,VALID,0,
2014-12-18, 01:26:04,VALID,1009.59,VALID,0,INVALID,134.953,VALID,0,VALID,23.5381,VALID,103,VALID,0,
2014-12-18, 01:27:04,VALID,1009.57,VALID,0,INVALID,135.25,VALID,0.112112,VALID,23.5186,VALID,103,VALID,0,
2014-12-18, 01:28:04,VALID,1009.55,VALID,0,INVALID,135.921,VALID,0,VALID,23.5186,VALID,103,VALID,0,
2014-12-18, 01:29:04,VALID,1009.55,VALID,0,INVALID,136.021,VALID,0.112112,VALID,23.4974,VALID,103,VALID,0,
2014-12-18, 01:30:04,VALID,1009.59,VALID,0,INVALID,136.425,VALID,0,VALID,23.4992,VALID,103,VALID,0,
2014-12-18, 01:31:04,VALID,1009.57,VALID,0,INVALID,136.455,VALID,0,VALID,23.4992,VALID,103,VALID,0,
2014-12-18, 01:32:04,VALID,1009.61,VALID,0,INVALID,136.6,VALID,0,VALID,23.4389,VALID,103,VALID,0,
2014-12-18, 01:33:04,VALID,1009.6,VALID,0,INVALID,136.92,VALID,0,VALID,23.4797,VALID,103,VALID,0,
2014-12-18, 01:34:04,VALID,1009.62,VALID,0,INVALID,137.256,VALID,0,VALID,23.4797,VALID,103,VALID,0,
2014-12-18, 01:35:04,VALID,1009.62,VALID,0,INVALID,137.576,VALID,0,VALID,23.4797,VALID,103,VALID,0,
2014-12-18, 01:36:04,VALID,1009.63,VALID,0,INVALID,138.034,VALID,0,VALID,23.4797,VALID,103,VALID,0,
2014-12-18, 01:37:04,VALID,1009.62,VALID,0,INVALID,138.224,VALID,0,VALID,23.4992,VALID,103,VALID,0,
2014-12-18, 01:38:04,VALID,1009.61,VALID,0,INVALID,138.186,VALID,0,VALID,23.4797,VALID,103,VALID,0,
2014-12-18, 01:39:04,VALID,1009.64,VALID,0,INVALID,138.369,VALID,0,VALID,23.4797,VALID,103,VALID,0,
2014-12-18, 01:40:04,VALID,1009.66,VALID,0,INVALID,138.293,VALID,0,VALID,23.4584,VALID,103,VALID,0,
2014-12-18, 01:41:04,VALID,1009.65,VALID,0,INVALID,138.179,VALID,0,VALID,23.4602,VALID,103,VALID,0,
2014-12-18, 01:42:04,VALID,1009.66,VALID,0,INVALID,138.049,VALID,0,VALID,23.4815,VALID,103,VALID,0,
2014-12-18, 01:43:04,VALID,1009.65,VALID,0,INVALID,138.057,VALID,0,VALID,23.4602,VALID,103,VALID,0,
2014-12-18, 01:44:04,VALID,1009.66,VALID,0,INVALID,138.156,VALID,0,VALID,23.4584,VALID,103,VALID,0,
2014-12-18, 01:45:04,VALID,1009.67,VALID,0,INVALID,138.278,VALID,0.112112,VALID,23.4992,VALID,103,VALID,0,
2014-12-18, 01:46:04,VALID,1009.64,VALID,0,INVALID,138.377,VALID,0,VALID,23.4974,VALID,103,VALID,0,
2014-12-18, 01:47:04,VALID,1009.66,VALID,0,INVALID,138.385,VALID,0,VALID,23.5186,VALID,103,VALID,0,
2014-12-18, 01:48:04,VALID,1009.66,VALID,0,INVALID,138.468,VALID,0,VALID,23.5576,VALID,103,VALID,0,
2014-12-18, 01:49:04,VALID,1009.66,VALID,0,INVALID,138.545,VALID,0,VALID,23.5576,VALID,103,VALID,0,
2014-12-18, 01:50:04,VALID,1009.64,VALID,0,INVALID,138.613,VALID,0,VALID,23.5558,VALID,103,VALID,0,
2014-12-18, 01:51:04,VALID,1009.63,VALID,0,INVALID,138.331,VALID,0,VALID,23.5771,VALID,103,VALID,0,
2014-12-18, 01:52:04,VALID,1009.6,VALID,0,INVALID,137.843,VALID,0,VALID,23.5576,VALID,103,VALID,0,
2014-12-18, 01:53:04,VALID,1009.57,VALID,0,INVALID,137.439,VALID,0,VALID,23.5576,VALID,103,VALID,0,
2014-12-18, 01:54:04,VALID,1009.55,VALID,0,INVALID,137.119,VALID,0,VALID,23.5771,VALID,103,VALID,0,
2014-12-18, 01:55:04,VALID,1009.53,VALID,0,INVALID,137.225,VALID,0,VALID,23.5966,VALID,103,VALID,0,
2014-12-18, 01:56:04,VALID,1009.51,VALID,0,INVALID,137.164,VALID,0,VALID,23.6161,VALID,103,VALID,0,
2014-12-18, 01:57:04,VALID,1009.51,VALID,0,INVALID,137.126,VALID,0,VALID,23.6161,VALID,103,VALID,0,
2014-12-18, 01:58:04,VALID,1009.48,VALID,0,INVALID,137.172,VALID,0,VALID,23.6143,VALID,103,VALID,0,
2014-12-18, 01:59:04,VALID,1009.45,VALID,0,INVALID,137.241,VALID,0,VALID,23.655,VALID,103,VALID,0,
2014-12-18, 02:00:04,VALID,1009.43,VALID,0,INVALID,137.286,VALID,0,VALID,23.655,VALID,103,VALID,0,
2014-12-18, 02:01:04,VALID,1009.42,VALID,0,INVALID,137.424,VALID,0,VALID,23.6745,VALID,103,VALID,0,
2014-12-18, 02:02:04,VALID,1009.4,VALID,0,INVALID,137.462,VALID,0,VALID,23.6745,VALID,103,VALID,0,
2014-12-18, 02:03:04,VALID,1009.39,VALID,0,INVALID,137.416,VALID,0,VALID,23.655,VALID,103,VALID,0,
2014-12-18, 02:04:04,VALID,1009.38,VALID,0,INVALID,137.469,VALID,0,VALID,23.6745,VALID,103,VALID,0,
2014-12-18, 02:05:04,VALID,1009.4,VALID,0,INVALID,137.515,VALID,0,VALID,23.694,VALID,103,VALID,0,
2014-12-18, 02:06:04,VALID,1009.36,VALID,0,INVALID,137.485,VALID,0,VALID,23.694,VALID,103,VALID,0,
2014-12-18, 02:07:04,VALID,1009.38,VALID,0,INVALID,137.142,VALID,0,VALID,23.7348,VALID,103,VALID,0,
2014-12-18, 02:08:04,VALID,1009.36,VALID,0,INVALID,137.203,VALID,0,VALID,23.7135,VALID,103,VALID,0,
2014-12-18, 02:09:04,VALID,1009.33,VALID,0,INVALID,136.997,VALID,0,VALID,23.7117,VALID,103,VALID,0,
2014-12-18, 02:10:04,VALID,1009.31,VALID,0,INVALID,136.798,VALID,0,VALID,23.7135,VALID,103,VALID,0,
2014-12-18, 02:11:04,VALID,1009.3,VALID,0,INVALID,136.898,VALID,0,VALID,23.7117,VALID,103,VALID,0,
2014-12-18, 02:12:04,VALID,1009.3,VALID,0,INVALID,136.928,VALID,0,VALID,23.733,VALID,103,VALID,0,
2014-12-18, 02:13:04,VALID,1009.29,VALID,0,INVALID,136.776,VALID,0,VALID,23.7135,VALID,103,VALID,0,
2014-12-18, 02:14:04,VALID,1009.32,VALID,0,INVALID,136.699,VALID,0,VALID,23.7135,VALID,103,VALID,0,
2014-12-18, 02:15:04,VALID,1009.3,VALID,0,INVALID,136.577,VALID,0,VALID,23.7135,VALID,103,VALID,0,
2014-12-18, 02:16:04,VALID,1009.31,VALID,0,INVALID,137.218,VALID,0,VALID,23.694,VALID,103,VALID,0,
2014-12-18, 02:17:04,VALID,1009.28,VALID,0,INVALID,137.515,VALID,0,VALID,23.7135,VALID,103,VALID,0,
2014-12-18, 02:18:04,VALID,1009.27,VALID,0,INVALID,137.286,VALID,0,VALID,23.6745,VALID,103,VALID,0,
2014-12-18, 02:19:04,VALID,1009.24,VALID,0,INVALID,136.364,VALID,0,VALID,23.6356,VALID,103,VALID,0,
2014-12-18, 02:20:04,VALID,1009.24,VALID,0,INVALID,136.15,VALID,0,VALID,23.5948,VALID,103,VALID,0,
2014-12-18, 02:21:04,VALID,1009.23,VALID,0,INVALID,136.707,VALID,0.112112,VALID,23.5966,VALID,103,VALID,0,
2014-12-18, 02:22:04,VALID,1009.23,VALID,0,INVALID,137.53,VALID,0,VALID,23.5771,VALID,103,VALID,0,
2014-12-18, 02:23:04,VALID,1009.25,VALID,0,INVALID,138.141,VALID,0,VALID,23.5966,VALID,103,VALID,0,
2014-12-18, 02:24:04,VALID,1009.24,VALID,0,INVALID,138.385,VALID,0.112112,VALID,23.5771,VALID,103,VALID,0,
2014-12-18, 02:25:04,VALID,1009.23,VALID,0,INVALID,138.529,VALID,0.112112,VALID,23.5771,VALID,103,VALID,0,
2014-12-18, 02:26:04,VALID,1009.22,VALID,0,INVALID,138.613,VALID,0,VALID,23.5771,VALID,103,VALID,0,
2014-12-18, 02:27:04,VALID,1009.2,VALID,0,INVALID,138.712,VALID,0.112112,VALID,23.5363,VALID,103,VALID,0,
2014-12-18, 02:28:04,VALID,1009.18,VALID,0,INVALID,138.941,VALID,0,VALID,23.5576,VALID,103,VALID,0,
2014-12-18, 02:29:04,VALID,1009.16,VALID,0,INVALID,139.056,VALID,0,VALID,23.5771,VALID,103,VALID,0,
2014-12-18, 02:30:04,VALID,1009.14,VALID,0,INVALID,139.231,VALID,0,VALID,23.5771,VALID,103,VALID,0,
2014-12-18, 02:31:04,VALID,1009.12,VALID,0,INVALID,139.223,VALID,0.112112,VALID,23.5558,VALID,103,VALID,0,
2014-12-18, 02:32:04,VALID,1009.1,VALID,0,INVALID,139.132,VALID,0,VALID,23.5771,VALID,103,VALID,0,
2014-12-18, 02:33:04,VALID,1009.07,VALID,0,INVALID,139.223,VALID,0,VALID,23.5558,VALID,103,VALID,0,
2014-12-18, 02:34:04,VALID,1009.05,VALID,0,INVALID,139.216,VALID,0,VALID,23.5576,VALID,103,VALID,0,
2014-12-18, 02:35:04,VALID,1009.06,VALID,0,INVALID,139.178,VALID,0,VALID,23.5363,VALID,103,VALID,0,
2014-12-18, 02:36:04,VALID,1009.07,VALID,0,INVALID,139.178,VALID,0,VALID,23.5381,VALID,103,VALID,0,
2014-12-18, 02:37:04,VALID,1009.03,VALID,0,INVALID,139.262,VALID,0,VALID,23.5381,VALID,103,VALID,0,
2014-12-18, 02:38:04,VALID,1009,VALID,0,INVALID,139.368,VALID,0,VALID,23.5186,VALID,103,VALID,0,
2014-12-18, 02:39:04,VALID,1008.97,VALID,0,INVALID,139.376,VALID,0.112112,VALID,23.4974,VALID,103,VALID,0,
2014-12-18, 02:40:04,VALID,1008.99,VALID,0,INVALID,139.475,VALID,0.112112,VALID,23.4779,VALID,103,VALID,0,
2014-12-18, 02:41:04,VALID,1008.97,VALID,0,INVALID,139.574,VALID,0.112112,VALID,23.4797,VALID,103,VALID,0,
2014-12-18, 02:42:04,VALID,1009,VALID,0,INVALID,139.704,VALID,0.112112,VALID,23.4797,VALID,103,VALID,0,
2014-12-18, 02:43:04,VALID,1008.99,VALID,0,INVALID,139.772,VALID,0,VALID,23.4584,VALID,103,VALID,0,
2014-12-18, 02:44:04,VALID,1008.98,VALID,0,INVALID,139.841,VALID,0,VALID,23.4797,VALID,103,VALID,0,
2014-12-18, 02:45:04,VALID,1008.96,VALID,0,INVALID,139.887,VALID,0,VALID,23.4797,VALID,103,VALID,0,
2014-12-18, 02:46:04,VALID,1008.97,VALID,0,INVALID,139.902,VALID,0.112112,VALID,23.4797,VALID,103,VALID,0,
2014-12-18, 02:47:04,VALID,1008.98,VALID,0,INVALID,139.978,VALID,0.112112,VALID,23.4797,VALID,103,VALID,0,
2014-12-18, 02:48:04,VALID,1008.99,VALID,0,INVALID,139.994,VALID,0.112112,VALID,23.4779,VALID,103,VALID,0,
2014-12-18, 02:49:04,VALID,1008.99,VALID,0,INVALID,140.009,VALID,0.112112,VALID,23.4992,VALID,103,VALID,0,
2014-12-18, 02:50:04,VALID,1008.99,VALID,0,INVALID,140.108,VALID,0,VALID,23.4992,VALID,103,VALID,0,
2014-12-18, 02:51:04,VALID,1008.98,VALID,0,INVALID,140.131,VALID,0,VALID,23.4992,VALID,103,VALID,0,
2014-12-18, 02:52:04,VALID,1008.99,VALID,0,INVALID,140.108,VALID,0.112112,VALID,23.5186,VALID,103,VALID,0,
2014-12-18, 02:53:04,VALID,1008.95,VALID,0,INVALID,140.154,VALID,0.112112,VALID,23.4974,VALID,103,VALID,0,
2014-12-18, 02:54:04,VALID,1008.95,VALID,0,INVALID,140.169,VALID,0.112112,VALID,23.4992,VALID,103,VALID,0,
2014-12-18, 02:55:04,VALID,1008.93,VALID,0,INVALID,140.116,VALID,0.112112,VALID,23.4992,VALID,103,VALID,0,
2014-12-18, 02:56:04,VALID,1008.98,VALID,0,INVALID,140.108,VALID,0.112112,VALID,23.4992,VALID,103,VALID,0,
2014-12-18, 02:57:04,VALID,1008.97,VALID,0,INVALID,140.116,VALID,0,VALID,23.4797,VALID,103,VALID,0,
2014-12-18, 02:58:04,VALID,1008.99,VALID,0,INVALID,140.207,VALID,0.112112,VALID,23.4992,VALID,103,VALID,0,
2014-12-18, 02:59:04,VALID,1009.01,VALID,0,INVALID,140.268,VALID,0.112112,VALID,23.4992,VALID,103,VALID,0,
2014-12-18, 03:00:04,VALID,1009,VALID,0,INVALID,140.26,VALID,0.112112,VALID,23.4779,VALID,103,VALID,0,
2014-12-18, 03:01:04,VALID,1009.02,VALID,0,INVALID,140.268,VALID,0.112112,VALID,23.4992,VALID,103,VALID,0,
2014-12-18, 03:02:04,VALID,1009.02,VALID,0,INVALID,140.276,VALID,0,VALID,23.4797,VALID,103,VALID,0,
2014-12-18, 03:03:04,VALID,1009.03,VALID,0,INVALID,140.268,VALID,0,VALID,23.4389,VALID,103,VALID,0,
2014-12-18, 03:04:04,VALID,1009.05,VALID,0,INVALID,140.276,VALID,0.112112,VALID,23.4584,VALID,103,VALID,0,
2014-12-18, 03:05:04,VALID,1009.07,VALID,0,INVALID,140.283,VALID,0,VALID,23.4797,VALID,103,VALID,0,
2014-12-18, 03:06:04,VALID,1009.09,VALID,0,INVALID,140.291,VALID,0,VALID,23.4602,VALID,103,VALID,0,
2014-12-18, 03:07:04,VALID,1009.09,VALID,0,INVALID,140.306,VALID,0,VALID,23.4389,VALID,103,VALID,0,
2014-12-18, 03:08:04,VALID,1009.09,VALID,0,INVALID,140.283,VALID,0,VALID,23.4407,VALID,103,VALID,0,
2014-12-18, 03:09:04,VALID,1009.11,VALID,0,INVALID,140.337,VALID,0.112112,VALID,23.4,VALID,103,VALID,0,
2014-12-18, 03:10:04,VALID,1009.11,VALID,0,INVALID,140.314,VALID,0,VALID,23.4407,VALID,103,VALID,0,
2014-12-18, 03:11:04,VALID,1009.11,VALID,0,INVALID,140.344,VALID,0,VALID,23.4212,VALID,103,VALID,0,
2014-12-18, 03:12:04,VALID,1009.14,VALID,0,INVALID,140.36,VALID,0.112112,VALID,23.4212,VALID,103,VALID,0,
2014-12-18, 03:13:04,VALID,1009.13,VALID,0,INVALID,140.36,VALID,0,VALID,23.4017,VALID,103,VALID,0,
2014-12-18, 03:14:04,VALID,1009.14,VALID,0,INVALID,140.375,VALID,0,VALID,23.4017,VALID,103,VALID,0,
2014-12-18, 03:15:04,VALID,1009.13,VALID,0,INVALID,140.367,VALID,0,VALID,23.4017,VALID,103,VALID,0,
2014-12-18, 03:16:04,VALID,1009.13,VALID,0,INVALID,140.367,VALID,0.112112,VALID,23.4017,VALID,103,VALID,0,
2014-12-18, 03:17:04,VALID,1009.09,VALID,0,INVALID,140.405,VALID,0.112112,VALID,23.4017,VALID,103,VALID,0,
2014-12-18, 03:18:04,VALID,1009.12,VALID,0,INVALID,140.428,VALID,0,VALID,23.3823,VALID,103,VALID,0,
2014-12-18, 03:19:04,VALID,1009.14,VALID,0,INVALID,140.421,VALID,0,VALID,23.361,VALID,103,VALID,0,
2014-12-18, 03:20:04,VALID,1009.15,VALID,0,INVALID,140.398,VALID,0.112112,VALID,23.3823,VALID,103,VALID,0,
2014-12-18, 03:21:04,VALID,1009.15,VALID,0,INVALID,140.39,VALID,0,VALID,23.361,VALID,103,VALID,0,
2014-12-18, 03:22:04,VALID,1009.16,VALID,0,INVALID,140.413,VALID,0,VALID,23.4017,VALID,103,VALID,0,
2014-12-18, 03:23:04,VALID,1009.15,VALID,0,INVALID,140.413,VALID,0,VALID,23.3823,VALID,103,VALID,0,
2014-12-18, 03:24:04,VALID,1009.16,VALID,0,INVALID,140.39,VALID,0.112112,VALID,23.3823,VALID,103,VALID,0,
2014-12-18, 03:25:04,VALID,1009.13,VALID,0,INVALID,140.367,VALID,0,VALID,23.3823,VALID,103,VALID,0,
2014-12-18, 03:26:04,VALID,1009.14,VALID,0,INVALID,140.344,VALID,0,VALID,23.3823,VALID,103,VALID,0,
2014-12-18, 03:27:04,VALID,1009.17,VALID,0,INVALID,140.321,VALID,0.112112,VALID,23.3628,VALID,103,VALID,0,
2014-12-18, 03:28:04,VALID,1009.18,VALID,0,INVALID,140.337,VALID,0,VALID,23.3823,VALID,103,VALID,0,
2014-12-18, 03:29:04,VALID,1009.19,VALID,0,INVALID,140.375,VALID,0,VALID,23.4017,VALID,103,VALID,0,
2014-12-18, 03:30:04,VALID,1009.18,VALID,0,INVALID,140.375,VALID,0,VALID,23.4017,VALID,103,VALID,0,
2014-12-18, 03:31:04,VALID,1009.18,VALID,0,INVALID,140.314,VALID,0.112112,VALID,23.361,VALID,103,VALID,0,
2014-12-18, 03:32:04,VALID,1009.15,VALID,0,INVALID,140.291,VALID,0.112112,VALID,23.3628,VALID,103,VALID,0,
2014-12-18, 03:33:04,VALID,1009.17,VALID,0,INVALID,140.253,VALID,0,VALID,23.3628,VALID,103,VALID,0,
2014-12-18, 03:34:04,VALID,1009.15,VALID,0,INVALID,140.184,VALID,0,VALID,23.3628,VALID,103,VALID,0,
2014-12-18, 03:35:04,VALID,1009.14,VALID,0,INVALID,140.184,VALID,0,VALID,23.3628,VALID,103,VALID,0,
2014-12-18, 03:36:04,VALID,1009.12,VALID,0,INVALID,140.245,VALID,0.112112,VALID,23.3415,VALID,103,VALID,0,
2014-12-18, 03:37:04,VALID,1009.14,VALID,0,INVALID,140.192,VALID,0,VALID,23.3628,VALID,103,VALID,0,
2014-12-18, 03:38:04,VALID,1009.13,VALID,0,INVALID,140.192,VALID,0.112112,VALID,23.322,VALID,103,VALID,0,
2014-12-18, 03:39:04,VALID,1009.12,VALID,0,INVALID,140.207,VALID,0,VALID,23.3628,VALID,103,VALID,0,
2014-12-18, 03:40:04,VALID,1009.12,VALID,0,INVALID,140.215,VALID,0.112112,VALID,23.3628,VALID,103,VALID,0,
2014-12-18, 03:41:04,VALID,1009.09,VALID,0,INVALID,140.23,VALID,0,VALID,23.3433,VALID,103,VALID,0,
2014-12-18, 03:42:04,VALID,1009.07,VALID,0,INVALID,140.26,VALID,0,VALID,23.3433,VALID,103,VALID,0,
2014-12-18, 03:43:04,VALID,1009.05,VALID,0,INVALID,140.245,VALID,0,VALID,23.3433,VALID,103,VALID,0,
2014-12-18, 03:44:04,VALID,1009.05,VALID,0,INVALID,140.283,VALID,0,VALID,23.3026,VALID,103,VALID,0,
2014-12-18, 03:45:04,VALID,1009.04,VALID,0,INVALID,140.299,VALID,0,VALID,23.3433,VALID,103,VALID,0,
2014-12-18, 03:46:04,VALID,1009.04,VALID,0,INVALID,140.321,VALID,0,VALID,23.3026,VALID,103,VALID,0,
2014-12-18, 03:47:04,VALID,1009.05,VALID,0,INVALID,140.344,VALID,0,VALID,23.3238,VALID,103,VALID,0,
2014-12-18, 03:48:04,VALID,1009.08,VALID,0,INVALID,140.329,VALID,0,VALID,23.3238,VALID,103,VALID,0,
2014-12-18, 03:49:04,VALID,1009.08,VALID,0,INVALID,140.36,VALID,0,VALID,23.3026,VALID,103,VALID,0,
2014-12-18, 03:50:04,VALID,1009.1,VALID,0,INVALID,140.36,VALID,0,VALID,23.3238,VALID,103,VALID,0,
2014-12-18, 03:51:04,VALID,1009.08,VALID,0,INVALID,140.352,VALID,0.112112,VALID,23.3238,VALID,103,VALID,0,
2014-12-18, 03:52:04,VALID,1009.06,VALID,0,INVALID,140.352,VALID,0,VALID,23.3043,VALID,103,VALID,0,